WetterOnline ( https://www.wetteronline.de )

Wetter aktuell Partenstein

Aktuelles Wetter: Neuhütten/Spessart (340m)

6-stündlich | Neueste Meldungen
Ortszeit Temperatur Wetter
Mi, 03.03. 19:00 9.1° C bedeckt
Mi, 03.03. 13:00 8.9° C bewölkt
Mi, 03.03. 7:00 -2.2° C wolkig
Mi, 03.03. 1:00 -0.3° C wolkig
Di, 02.03. 19:00 7.6° C wolkenlos
Di, 02.03. 13:00 11.1° C wolkenlos
Di, 02.03. 7:00 -1.1° C wolkenlos
Di, 02.03. 1:00 1.0° C wolkenlos
Ortszeit Temperatur Wetter
Mi, 03.03. 22:00 5.7° C bewölkt
Mi, 03.03. 21:50 5.7° C bewölkt
Mi, 03.03. 21:40 5.5° C wolkig
Mi, 03.03. 21:30 5.5° C bewölkt
Mi, 03.03. 21:20 5.5° C bewölkt
Mi, 03.03. 21:10 6.6° C bewölkt
Mi, 03.03. 21:00 6.7° C bewölkt
Mi, 03.03. 20:30 7.0° C bewölkt
Mi, 03.03. 20:00 7.5° C bedeckt
Mi, 03.03. 19:30 8.5° C bedeckt
Mi, 03.03. 19:00 9.1° C bedeckt
Ortszeit Relative Feuchte Sichtweite
Mi, 03.03. 19:00 65% 27 km
Mi, 03.03. 13:00 60% 27 km
Mi, 03.03. 7:00 96% 8 km
Mi, 03.03. 1:00 98% 6 km
Di, 02.03. 19:00 67% 35 km
Di, 02.03. 13:00 53% 30 km
Di, 02.03. 7:00 96% 18 km
Di, 02.03. 1:00 88% 35 km
Ortszeit Relative Feuchte Sichtweite
Mi, 03.03. 22:00 83% 24 km
Mi, 03.03. 21:50 83% -
Mi, 03.03. 21:40 84% -
Mi, 03.03. 21:30 84% 18 km
Mi, 03.03. 21:20 84% -
Mi, 03.03. 21:10 78% -
Mi, 03.03. 21:00 78% 17 km
Mi, 03.03. 20:30 76% 26 km
Mi, 03.03. 20:00 75% 26 km
Mi, 03.03. 19:30 69% 28 km
Mi, 03.03. 19:00 65% 27 km
Ortszeit Niederschlagsmenge Niederschlagsart
Mi, 03.03. 19:00 0.0 l/m2 in 12 Std. -
Mi, 03.03. 13:00 0.0 l/m2 in 6 Std. -
Mi, 03.03. 7:00 0.0 l/m2 in 12 Std. -
Mi, 03.03. 1:00 0.0 l/m2 in 6 Std. -
Di, 02.03. 19:00 0.0 l/m2 in 12 Std. -
Di, 02.03. 13:00 0.0 l/m2 in 6 Std. -
Di, 02.03. 7:00 0.0 l/m2 in 12 Std. -
Di, 02.03. 1:00 0.0 l/m2 in 6 Std. -
Ortszeit Niederschlagsmenge Niederschlagsart
Mi, 03.03. 22:00 0.0 l/m2 in 1 Std. -
Mi, 03.03. 21:50 keine Meldung -
Mi, 03.03. 21:40 keine Meldung -
Mi, 03.03. 21:30 0.0 l/m2 in 1 Std. -
Mi, 03.03. 21:20 keine Meldung -
Mi, 03.03. 21:10 keine Meldung -
Mi, 03.03. 21:00 0.0 l/m2 in 1 Std. -
Mi, 03.03. 20:30 0.0 l/m2 in 1 Std. -
Mi, 03.03. 20:00 0.0 l/m2 in 1 Std. -
Mi, 03.03. 19:30 0.0 l/m2 in 1 Std. -
Mi, 03.03. 19:00 0.0 l/m2 in 1 Std. -
Ortszeit Stärke Spitze Richtung
km/h Bft. km/h Grad Sektor
Mi, 03.03. 19:00 4 1 18 260° W
Mi, 03.03. 13:00 6 1 7 50° NO
Mi, 03.03. 7:00 0 0 7 - -
Mi, 03.03. 1:00 2 1 6 30° NO
Di, 02.03. 19:00 4 1 22 240° SW
Di, 02.03. 13:00 14 3 29 120° SO
Di, 02.03. 7:00 2 1 11 20° N
Di, 02.03. 1:00 7 2 11 70° O
Ortszeit Stärke Spitze Richtung
km/h Bft. km/h Grad Sektor
Mi, 03.03. 22:00 2 1 6 300° NW
Mi, 03.03. 21:50 2 1 - 300° NW
Mi, 03.03. 21:40 2 1 - 300° NW
Mi, 03.03. 21:30 4 1 4 290° W
Mi, 03.03. 21:20 4 1 - 290° W
Mi, 03.03. 21:10 4 1 - 300° NW
Mi, 03.03. 21:00 4 1 4 300° NW
Mi, 03.03. 20:30 4 1 4 270° W
Mi, 03.03. 20:00 2 1 6 90° O
Mi, 03.03. 19:30 0 0 4 - -
Mi, 03.03. 19:00 4 1 7 260° W
Ortszeit Untergrenze Bedeckung Gattung
total tief tief mittel hoch
Mi, 03.03. 19:00 2700 m 8/8 8/8 - - -
Mi, 03.03. 13:00 3300 m 7/8 7/8 - - -
Mi, 03.03. 7:00 7800 m 8/8 0/8 - - -
Mi, 03.03. 1:00 9000 m 7/8 0/8 - - -
Di, 02.03. 19:00 - 0/8 0/8 - - -
Di, 02.03. 13:00 - 0/8 0/8 - - -
Di, 02.03. 7:00 - 0/8 0/8 - - -
Di, 02.03. 1:00 - 0/8 0/8 - - -
Ortszeit Bedeckungsgrad in Achtel und Wolkenuntergrenze
Mi, 03.03. 22:00 4(3000m) 8(8100m) 8(8700m)
Mi, 03.03. 21:50 4(3000m) 8(8100m) 8(8700m)
Mi, 03.03. 21:40 2(3000m) 8(8100m)
Mi, 03.03. 21:30 6(3000m) 8(8400m)
Mi, 03.03. 21:20 6(3000m) 8(8400m)
Mi, 03.03. 21:10 6(3000m) 8(8400m) 8(9000m)
Mi, 03.03. 21:00 6(3300m) 8(8400m) 8(9000m)
Mi, 03.03. 20:30 5(2700m) 7(3300m) 8(8400m)
Mi, 03.03. 20:00 8(3000m) 8(8400m)
Mi, 03.03. 19:30 2(2100m) 8(2700m) 8(8400m)
Mi, 03.03. 19:00 8(2700m) 8(4200m)
Ortszeit Luftdruck NN (hPa) Tendenz (hPa in 3 Std.)
Mi, 03.03. 19:00 1027 - 0,6
Mi, 03.03. 13:00 1030 - 1,0
Mi, 03.03. 7:00 1032 - 0,5
Mi, 03.03. 1:00 1033 - 0,7
Di, 02.03. 19:00 1032 + 0,1
Di, 02.03. 13:00 1032 - 0,4
Di, 02.03. 7:00 1034 + 0,2
Di, 02.03. 1:00 1034 + 0,4
Ortszeit Luftdruck NN (hPa) Tendenz (hPa in 3 Std.)
Mi, 03.03. 22:00 1027 - 0,9
Mi, 03.03. 21:50 1027 keine Meldung
Mi, 03.03. 21:40 1027 keine Meldung
Mi, 03.03. 21:30 1027 - 0,5
Mi, 03.03. 21:20 1027 keine Meldung
Mi, 03.03. 21:10 1027 keine Meldung
Mi, 03.03. 21:00 1027 - 0,5
Mi, 03.03. 20:30 1027 - 0,5
Mi, 03.03. 20:00 1027 - 0,5
Mi, 03.03. 19:30 1027 - 0,5
Mi, 03.03. 19:00 1027 - 0,6
Ortszeit Schneehöhe (cm)
Mi, 03.03. 19:00 0
Mi, 03.03. 13:00 0
Mi, 03.03. 7:00 0
Mi, 03.03. 1:00 0
Di, 02.03. 19:00 0
Di, 02.03. 13:00 0
Di, 02.03. 7:00 0
Di, 02.03. 1:00 0
Ortszeit Schneehöhe (cm)
Mi, 03.03. 22:00 0
Mi, 03.03. 21:50 0
Mi, 03.03. 21:40 0
Mi, 03.03. 21:30 0
Mi, 03.03. 21:20 0
Mi, 03.03. 21:10 0
Mi, 03.03. 21:00 0
Mi, 03.03. 20:30 0
Mi, 03.03. 20:00 0
Mi, 03.03. 19:30 0
Mi, 03.03. 19:00 0
Link zu dieser Seite / Seite empfehlen

Das Wetter in ...